Location: Washington
(38.8950°N, 77.0370°W)
Time: 22:36:55
(UTC-04:00)

IDEFIX/ARIANE 42P - Visible Passes

Search period start: 31 October 2014 00:00
Search period end: 09 November 2014 23:00
Orbit: 786 x 804 km, 98.3° (Epoch: 31 October)

Date Brightness Start Highest point End Pass type
(mag) Time Alt. Az. Time Alt. Az. Time Alt. Az.
31 Oct 4.2 19:27:05 16° NE 19:27:05 16° NE 19:29:05 10° NNE visible
31 Oct 4.4 21:07:55 24° NNW 21:07:55 24° NNW 21:10:00 10° NNW visible
01 Nov 4.0 20:39:36 27° N 20:39:36 27° N 20:41:55 10° N visible
02 Nov 4.0 19:11:16 24° NNE 19:11:16 24° NNE 19:13:33 10° N visible
02 Nov 5.4 20:52:06 11° NW 20:52:06 11° NW 20:52:24 10° NW visible
03 Nov 4.2 18:42:57 18° NNE 18:42:57 18° NNE 18:44:50 10° NNE visible
03 Nov 5.0 20:23:47 17° NW 20:23:47 17° NW 20:24:59 10° NNW visible
04 Nov 4.5 18:14:37 12° NE 18:14:37 12° NE 18:15:24 10° NNE visible
04 Nov 4.5 19:55:27 21° NNW 19:55:27 21° NNW 19:57:06 10° NNW visible
05 Nov 4.3 19:27:07 21° N 19:27:07 21° N 19:28:53 10° N visible
06 Nov 4.3 18:58:47 18° NNE 18:58:47 18° NNE 19:00:22 10° N visible
06 Nov 5.4 20:39:37 11° NW 20:39:37 11° NW 20:39:50 10° NW visible
07 Nov 4.5 18:30:27 13° NNE 18:30:27 13° NNE 18:31:25 10° NNE visible
07 Nov 5.0 20:11:17 15° NNW 20:11:17 15° NNW 20:12:10 10° NNW visible
08 Nov 4.6 19:42:57 17° N 19:42:57 17° N 19:44:07 10° N visible
09 Nov 4.5 19:14:36 17° N 19:14:36 17° N 19:15:47 10° N visible
